Redding, CA

5:39 PM PST on November 19, 2019 (GMT -0800)
Redding Municipal

Weather History for KRDD - September, 2019

Change the Weather History Date:

Wednesday, September 25, 2019

  Actual Average Record
Temperature  
Mean Temperature 91 °F -  
Max Temperature 100 °F 88 °F 105 °F (1964)
Min Temperature 81 °F 56 °F 43 °F (2007)
Degree Days  
Heating Degree Days 0    
Cooling Degree Days 26    
Growing Degree Days 40 (Base 50)    
Moisture  
Dew Point 47 °F    
Average Humidity 27    
Maximum Humidity 40    
Minimum Humidity 13    
Precipitation  
Precipitation 0.00 in 0.02 in 2.45 in (2014)
Month to date precipitation 0.24 0.49  
Year to date precipitation 32.51 21.62  
Sea Level Pressure  
Sea Level Pressure 29.82 in    
Wind  
Wind Speed 14 mph (North)    
Max Wind Speed 31 mph    
Max Gust Speed 43 mph    
Visibility 10 miles    
Events      
T = Trace of Precipitation, MM = Missing Value Source: NWS Daily Summary

Daily Weather History Graph

Daily Weather History Graph

Search for Another Location

Airport or City:

Astronomy

Sep. 25, 2019 Rise Set
Actual Time 6:59 AM PDT 7:01 PM PDT
Civil Twilight 6:32 AM PDT 7:28 PM PDT
Nautical Twilight 6:00 AM PDT 8:00 PM PDT
Astronomical Twilight 5:28 AM PDT 8:32 PM PDT
Moon 2:58 AM PDT (9/25) 5:38 PM PDT (9/25)
Length of Visible Light 12h 56m
Length of Day
12h 01m
Waning Crescent, 13% of the Moon is Illuminated
Sep 25
Waning Crescent
Sep 28
New
Oct 5
First Quarter
Oct 13
Full
Oct 21
Last Quarter

Hourly Weather History & Observations

Time (PDT) Temp. Heat Index Dew Point Humidity Pressure Visibility Wind Dir Wind Speed Gust Speed Precip Events Conditions
12:53 AM 84.0 °F 82.6 °F 54.0 °F 35% 29.88 in 10.0 mi North 12.7 mph 19.6 mph N/A   Clear
1:53 AM 84.0 °F 82.6 °F 54.0 °F 35% 29.88 in 10.0 mi NNW 12.7 mph 21.9 mph N/A   Clear
2:53 AM 82.9 °F 82.0 °F 55.0 °F 38% 29.87 in 10.0 mi North 9.2 mph 19.6 mph N/A   Clear
3:53 AM 82.0 °F 81.4 °F 55.0 °F 39% 29.86 in 10.0 mi North 16.1 mph 21.9 mph N/A   Clear
4:53 AM 82.0 °F 81.3 °F 54.0 °F 38% 29.87 in 10.0 mi North 9.2 mph 18.4 mph N/A   Clear
5:53 AM 81.0 °F 80.5 °F 54.0 °F 39% 29.87 in 10.0 mi North 8.1 mph - N/A   Clear
6:53 AM 81.0 °F - 52.0 °F 36% 29.88 in 10.0 mi North 12.7 mph 23.0 mph N/A   Partly Cloudy
7:53 AM 81.0 °F - 51.1 °F 35% 29.91 in 10.0 mi North 13.8 mph 23.0 mph N/A   Clear
8:53 AM 84.0 °F - 48.0 °F 28% 29.91 in 10.0 mi North 17.3 mph 27.6 mph N/A   Clear
9:53 AM 86.0 °F - 46.0 °F 25% 29.90 in 10.0 mi North 19.6 mph 32.2 mph N/A   Clear
10:53 AM 89.1 °F - 46.0 °F 22% 29.87 in 10.0 mi North 23.0 mph 34.5 mph N/A   Clear
11:53 AM 91.9 °F - 45.0 °F 20% 29.84 in 10.0 mi North 25.3 mph 38.0 mph N/A   Clear
12:53 PM 93.9 °F - 45.0 °F 18% 29.81 in 10.0 mi NNE 25.3 mph 38.0 mph N/A   Clear
1:53 PM 96.1 °F - 45.0 °F 17% 29.78 in 10.0 mi North 19.6 mph 26.5 mph N/A   Clear
2:53 PM 98.1 °F - 45.0 °F 16% 29.76 in 10.0 mi North 19.6 mph 31.1 mph N/A   Clear
3:53 PM 99.0 °F - 45.0 °F 16% 29.74 in 10.0 mi North 24.2 mph 29.9 mph N/A   Clear
4:53 PM 99.0 °F - 39.9 °F 13% 29.73 in 10.0 mi North 17.3 mph 27.6 mph N/A   Clear
5:53 PM 98.1 °F - 41.0 °F 14% 29.73 in 10.0 mi North 19.6 mph 26.5 mph N/A   Clear
6:53 PM 93.9 °F - 44.1 °F 18% 29.73 in 10.0 mi North 13.8 mph 23.0 mph N/A   Clear
7:53 PM 90.0 °F - 46.0 °F 22% 29.76 in 10.0 mi NNW 8.1 mph - N/A   Clear
8:53 PM 90.0 °F - 43.0 °F 19% 29.77 in 10.0 mi North 11.5 mph - N/A   Clear
9:53 PM 88.0 °F - 43.0 °F 21% 29.77 in 10.0 mi NNW 9.2 mph - N/A   Clear
10:53 PM 86.0 °F - 43.0 °F 22% 29.76 in 10.0 mi NNW 9.2 mph - N/A   Clear
11:53 PM 84.9 °F - 43.0 °F 23% 29.76 in 10.0 mi NNW 8.1 mph - N/A   Clear